Wind_Speed
41 40 40 40 40 40 40 41 42 42 42 42 44 44 44 45 46 46 46 47 47 46 47 46 46 47 48 48 49 49 50 50 50 50 49 49 49 49
41 41 41 41 41 41 42 42 43 43 43 43 44 44 45 46 46 46 47 48 47 47 47 46 47 48 48 49 50 50 50 52 52 51 51 51 50 50
41 40 40 41 41 42 42 43 43 44 45 45 46 46 46 47 47 46 46 47 47 47 47 47 48 49 50 50 50 50 50 50 50 51 51 51 51 51
41 41 41 41 41 41 42 42 43 43 44 45 45 46 47 47 47 47 48 47 48 47 47 48 49 50 50 50 50 50 50 50 51 51 51 51 51 51
41 41 42 41 40 40 40 41 42 42 43 44 44 44 45 46 46 46 47 47 48 48 47 48 49 49 49 50 50 51 51 50 51 51 51 51 51 51
40 40 40 40 41 41 41 41 41 42 42 43 44 45 45 46 46 47 47 47 47 47 47 47 48 48 48 49 49 49 49 50 50 50 50 51 51 51
41 40 40 40 41 42 42 42 42 42 42 43 44 45 46 46 47 47 47 47 47 48 48 48 48 48 48 48 48 48 48 49 49 49 49 49 50 50
41 41 40 40 41 41 42 42 42 42 43 43 44 45 45 46 46 46 47 47 47 47 48 48 48 48 48 48 47 47 47 47 47 46 47 48 49 49
41 41 41 40 40 40 41 41 41 42 43 44 43 43 43 44 45 46 46 47 47 47 47 46 47 47 47 46 46 47 47 47 47 47 47 48 49 49
40 40 40 40 40 41 41 41 41 41 42 42 43 43 42 42 43 43 44 44 45 45 46 45 45 45 45 46 46 46 46 47 47 47 48 49 49 49
40 40 41 41 41 41 41 41 41 41 41 41 41 41 42 43 43 44 44 44 44 44 44 44 44 45 45 45 46 46 46 46 46 46 47 48 49 50
40 40 40 40 40 40 41 41 41 41 41 41 41 41 41 42 42 43 43 43 44 43 43 43 44 44 44 44 45 46 46 46 47 47 47 48 49 49
40 40 40 40 40 40 40 41 40 41 41 41 41 41 41 41 42 42 42 42 42 42 43 43 42 42 43 43 44 45 47 47 48 48 48 49 49 49
39 40 40 40 40 40 41 41 41 41 42 41 41 42 42 42 42 42 41 41 41 41 41 41 41 41 42 42 43 44 45 46 46 46 47 48 48 48
38 39 39 40 40 40 40 40 41 42 42 42 42 42 42 42 41 41 40 40 39 39 39 40 40 40 41 41 41 42 42 43 44 45 46 47 48 48
36 38 38 38 39 39 39 40 41 42 42 42 41 41 42 41 41 40 40 39 39 39 39 40 40 41 41 40 41 41 42 42 43 45 46 47 48 48
35 36 37 37 37 37 38 39 39 40 40 40 40 40 41 41 41 40 40 39 40 40 40 41 41 41 41 41 42 42 42 43 44 45 46 47 47 48
35 36 36 36 37 37 37 37 37 37 38 38 38 39 39 39 39 39 40 40 41 41 41 41 42 42 42 43 43 43 44 44 45 45 46 45 45 46
35 35 36 36 36 36 36 36 37 37 37 37 37 38 38 39 39 39 40 40 41 41 42 42 43 44 44 44 44 45 45 44 44 44 44 44 43 44
34 35 35 35 36 36 36 36 37 37 37 37 38 38 38 39 39 39 40 41 41 42 42 43 44 44 44 43 43 43 44 44 43 43 43 42 42 42
34 35 35 35 36 37 37 37 37 38 38 38 38 38 38 38 39 39 40 41 41 42 42 42 43 43 43 43 42 42 42 43 42 42 42 41 40 41
35 35 35 35 36 37 37 38 38 38 38 38 38 38 38 39 39 39 40 41 41 41 41 41 41 41 41 41 41 40 41 41 41 41 41 40 40 39
35 35 36 36 37 37 37 38 38 38 38 38 38 39 39 39 40 40 40 40 40 40 39 39 39 39 38 38 38 38 38 39 39 39 40 40 39 39
Wind_Direction
261 261 262 263 264 264 264 264 264 262 262 263 264 264 264 264 264 265 266 266 267 267 267 266 267 268 268 268 269 269 269 269 270 269 269 270 271 271
262 262 262 264 264 264 264 265 265 264 264 264 265 267 267 267 268 267 266 266 266 267 267 267 268 268 268 269 269 270 270 270 270 269 269 270 270 271
262 262 263 264 264 265 265 265 266 266 265 265 266 267 269 269 268 267 267 266 266 267 268 268 269 270 270 270 270 270 271 271 270 269 270 270 271 271
261 262 263 264 265 265 265 266 267 266 266 266 266 268 269 270 269 267 267 267 267 268 269 270 271 271 270 271 270 270 271 271 271 270 269 270 270 270
260 262 263 264 265 265 265 267 268 268 268 268 268 268 268 269 268 268 269 268 267 268 270 271 271 271 271 271 270 271 271 272 272 272 271 270 270 270
261 262 263 264 264 264 265 268 269 270 270 270 269 269 268 268 269 269 269 268 268 268 270 271 272 272 272 271 271 271 272 272 272 272 272 271 270 270
261 261 263 264 264 266 267 269 270 271 271 271 271 270 269 269 269 269 268 268 268 269 270 272 273 273 273 272 272 272 271 271 272 272 272 272 271 270
260 261 262 264 265 267 268 269 270 271 272 272 272 272 271 270 269 269 269 269 268 269 270 272 273 273 273 272 272 272 272 271 272 272 273 274 272 270
260 261 262 263 265 268 269 270 271 272 273 274 273 273 273 272 271 271 270 271 270 270 271 273 274 274 273 271 271 271 272 271 271 271 272 273 273 272
260 261 263 265 267 269 269 270 271 272 273 273 274 274 273 272 273 272 272 272 272 272 273 274 274 273 272 271 271 272 272 272 272 272 272 272 273 272
260 262 264 266 267 269 269 270 271 272 272 273 275 274 273 273 273 273 273 273 273 273 273 274 275 274 273 272 271 272 272 272 272 272 272 272 272 271
261 263 264 265 266 267 269 270 271 272 273 274 274 275 274 274 273 274 274 273 273 273 273 274 275 275 274 273 272 272 272 273 273 273 273 273 273 272
261 263 264 264 266 267 269 270 271 272 273 274 274 275 275 275 275 275 275 275 275 274 274 274 275 276 275 274 273 273 273 274 274 274 274 275 274 274
263 263 264 266 267 269 270 271 272 273 273 274 275 275 275 276 276 277 276 276 276 276 275 275 276 277 277 276 276 275 275 275 275 275 275 276 276 276
265 265 266 267 270 271 272 272 274 275 275 275 275 276 276 276 276 276 276 276 276 276 275 276 277 278 278 278 277 277 276 276 276 276 277 278 278 277
266 267 268 270 271 272 272 273 274 275 275 275 276 275 275 275 275 275 275 276 277 277 277 277 278 278 278 279 279 279 278 278 277 277 277 278 278 278
268 269 270 270 271 272 272 273 274 274 275 275 275 275 275 274 274 274 275 275 276 277 277 278 278 279 279 279 279 280 280 280 280 280 279 279 279 279
269 270 270 270 270 271 271 273 274 274 275 275 275 275 275 274 274 274 274 275 275 276 277 277 278 278 279 280 280 281 281 281 282 282 282 281 281 280
270 270 270 270 270 270 271 273 274 275 276 276 276 276 276 275 274 274 275 275 276 276 276 277 277 278 278 279 281 281 280 281 281 282 282 282 282 281
270 270 270 270 270 270 271 273 274 275 276 277 277 277 277 277 276 276 276 276 277 277 278 278 279 279 279 280 280 281 282 282 281 282 282 282 282 283
269 270 270 271 271 271 271 272 273 275 277 277 277 277 278 278 278 279 279 279 279 279 279 279 280 280 280 280 281 281 282 282 282 282 282 282 282 283
269 270 272 273 273 274 274 274 274 275 276 277 277 278 279 279 280 281 280 280 280 281 280 280 280 280 281 281 282 282 282 282 282 283 283 283 284 284
270 270 272 274 275 276 276 276 276 275 276 276 277 278 280 280 282 282 281 281 281 281 280 279 279 280 281 282 283 282 282 282 282 282 283 284 285 285
Height
5693 5694 5696 5697 5698 5699 5700 5701 5703 5705 5706 5707 5708 5708 5708 5709 5710 5711 5711 5711 5711 5711 5711 5711 5710 5710 5710 5710 5709 5709 5709 5709 5709 5709 5710 5710 5710 5711
5682 5683 5685 5686 5687 5688 5689 5690 5691 5693 5695 5696 5696 5696 5696 5697 5697 5698 5698 5698 5698 5698 5698 5698 5697 5697 5697 5696 5696 5695 5695 5695 5695 5696 5696 5696 5697 5697
5671 5673 5674 5675 5676 5677 5678 5679 5680 5681 5683 5684 5684 5684 5684 5684 5684 5684 5685 5685 5685 5685 5684 5684 5684 5683 5683 5682 5682 5681 5681 5681 5681 5682 5682 5682 5682 5683
5660 5662 5663 5664 5665 5666 5667 5668 5668 5669 5670 5671 5672 5672 5672 5671 5671 5671 5672 5671 5672 5672 5671 5671 5670 5669 5669 5669 5668 5668 5668 5667 5667 5668 5668 5668 5668 5668
5649 5651 5652 5653 5654 5655 5655 5656 5657 5657 5657 5658 5659 5659 5659 5659 5658 5658 5658 5659 5659 5658 5658 5657 5656 5656 5655 5654 5654 5654 5654 5654 5654 5653 5653 5653 5653 5654
5638 5639 5640 5641 5643 5643 5644 5645 5645 5645 5645 5646 5646 5647 5647 5646 5645 5646 5646 5646 5646 5645 5644 5644 5643 5642 5641 5641 5641 5640 5640 5639 5639 5639 5639 5639 5639 5639
5627 5628 5629 5630 5631 5632 5633 5633 5633 5633 5633 5633 5634 5634 5633 5633 5633 5633 5633 5633 5633 5632 5631 5631 5630 5629 5628 5627 5626 5626 5626 5626 5625 5625 5625 5625 5625 5625
5616 5617 5618 5619 5619 5620 5620 5621 5621 5621 5621 5621 5621 5621 5620 5620 5619 5619 5619 5619 5620 5620 5618 5617 5616 5615 5614 5614 5613 5613 5612 5612 5612 5611 5611 5611 5611 5611
5604 5605 5606 5607 5608 5608 5608 5609 5609 5608 5609 5608 5608 5608 5608 5607 5606 5606 5606 5605 5606 5605 5604 5604 5602 5601 5601 5600 5599 5599 5599 5598 5598 5597 5597 5597 5597 5597
5592 5593 5594 5595 5595 5596 5596 5597 5597 5597 5596 5596 5596 5596 5594 5594 5593 5593 5592 5592 5592 5591 5590 5590 5589 5588 5587 5587 5586 5586 5585 5585 5585 5584 5584 5583 5583 5582
5580 5581 5582 5583 5584 5584 5584 5585 5585 5585 5584 5584 5584 5583 5582 5581 5580 5580 5580 5579 5579 5579 5578 5577 5576 5575 5575 5574 5573 5573 5572 5572 5571 5571 5570 5569 5569 5568
5569 5570 5570 5571 5571 5571 5572 5572 5573 5573 5572 5572 5572 5571 5570 5569 5568 5567 5567 5566 5566 5566 5565 5564 5563 5562 5562 5562 5560 5559 5559 5558 5558 5557 5556 5555 5554 5554
5557 5558 5558 5559 5559 5560 5560 5560 5561 5561 5560 5560 5560 5559 5558 5557 5556 5555 5554 5553 5553 5553 5553 5551 5550 5549 5548 5548 5548 5546 5545 5544 5544 5543 5542 5541 5540 5539
5544 5545 5546 5547 5547 5547 5547 5548 5548 5548 5548 5548 5547 5547 5546 5545 5543 5542 5541 5541 5540 5540 5539 5538 5537 5536 5535 5535 5534 5533 5532 5530 5530 5529 5528 5526 5525 5524
5532 5533 5534 5535 5535 5535 5535 5535 5535 5535 5535 5535 5535 5534 5533 5532 5531 5530 5529 5529 5528 5527 5526 5525 5525 5524 5523 5522 5522 5521 5519 5518 5516 5516 5514 5513 5512 5510
5520 5521 5522 5522 5523 5523 5523 5523 5523 5522 5522 5522 5521 5521 5520 5519 5519 5518 5517 5517 5516 5516 5515 5514 5513 5512 5511 5510 5509 5508 5507 5506 5504 5502 5501 5499 5498 5496
5509 5510 5510 5511 5511 5511 5511 5511 5510 5510 5509 5509 5509 5508 5508 5507 5507 5506 5505 5505 5504 5504 5503 5501 5500 5499 5498 5497 5496 5495 5494 5492 5491 5489 5488 5486 5484 5482
5498 5498 5499 5499 5499 5500 5499 5499 5499 5498 5498 5497 5496 5495 5495 5494 5494 5493 5493 5492 5492 5491 5490 5489 5488 5486 5486 5484 5483 5482 5480 5479 5477 5475 5473 5472 5471 5468
5487 5487 5488 5488 5488 5488 5488 5488 5487 5487 5486 5485 5484 5483 5483 5482 5481 5481 5480 5479 5479 5478 5477 5475 5474 5473 5473 5472 5470 5468 5467 5465 5464 5462 5460 5458 5457 5455
5476 5476 5476 5476 5476 5476 5476 5476 5475 5475 5474 5473 5473 5472 5471 5470 5469 5468 5467 5466 5465 5464 5463 5462 5461 5460 5459 5458 5457 5454 5452 5451 5450 5449 5447 5445 5443 5441
5465 5465 5465 5465 5465 5465 5464 5464 5464 5463 5462 5461 5461 5460 5459 5458 5457 5456 5454 5453 5452 5451 5450 5449 5447 5446 5444 5444 5443 5442 5439 5437 5436 5435 5433 5432 5431 5429
5454 5454 5454 5454 5453 5453 5453 5452 5452 5451 5450 5449 5449 5448 5447 5445 5444 5443 5442 5440 5439 5438 5437 5435 5434 5432 5431 5431 5430 5429 5427 5425 5423 5421 5419 5418 5417 5416
5443 5443 5443 5443 5442 5441 5441 5440 5439 5439 5438 5437 5436 5436 5434 5433 5432 5430 5429 5428 5426 5425 5424 5423 5422 5420 5419 5418 5417 5416 5414 5412 5411 5409 5407 5405 5404 5402